• Em Portugal
  • Lista de países
  • Para 7 dias
  • Temperatura da água
  • Mapas de satélite
  • Mapa do tempo
  • Widgets de tempo
  • user-avatar
    Iniciar Sessão

    Previsão horária em Escuintla

    Hoje, 23 Agosto, Quarta-feira

    Tempo Temperatura Precipitação Vento Pressão Humidade
    00:00 +25°C° 0,8 mm 1 m/s 729 mmHg 92%
    01:00 +25°C° 0,3 mm 1 m/s 729 mmHg 92%
    02:00 +25°C° 0,3 mm 1 m/s 729 mmHg 91%
    03:00 +25°C° 0,3 mm 1 m/s 728 mmHg 91%
    04:00 +24°C° 0,1 mm 1 m/s 728 mmHg 90%
    05:00 +24°C° 0,1 mm 1 m/s 728 mmHg 89%
    06:00 +24°C° 0,1 mm 1 m/s 728 mmHg 89%
    07:00 +27°C° 0 mm 1 m/s 729 mmHg 79%
    08:00 +29°C° 0 mm 1 m/s 729 mmHg 70%
    09:00 +32°C° 0 mm 1 m/s 729 mmHg 61%
    10:00 +32°C° 0,3 mm 1 m/s 729 mmHg 59%
    11:00 +34°C° 0,3 mm 2 m/s 729 mmHg 58%
    12:00 +35°C° 0,3 mm 2 m/s 729 mmHg 57%
    13:00 +34°C° 0,6 mm 2 m/s 728 mmHg 59%
    14:00 +34°C° 0,6 mm 3 m/s 727 mmHg 61%
    15:00 +33°C° 0,6 mm 3 m/s 727 mmHg 62%
    16:00 +31°C° 0,5 mm 2 m/s 727 mmHg 68%
    17:00 +30°C° 0,5 mm 2 m/s 727 mmHg 74%
    18:00 +28°C° 0,5 mm 1 m/s 726 mmHg 80%
    19:00 +28°C° 0,3 mm 1 m/s 727 mmHg 81%
    20:00 +27°C° 0,3 mm 1 m/s 728 mmHg 82%
    21:00 +27°C° 0,3 mm 1 m/s 728 mmHg 83%
    22:00 +27°C° 0,4 mm 1 m/s 728 mmHg 83%
    23:00 +26°C° 0,4 mm 1 m/s 728 mmHg 83%

    Amanhã, 24 Agosto, Quinta-feira

    Tempo Temperatura Precipitação Vento Pressão Humidade
    00:00 +26°C° 0,4 mm 1 m/s 728 mmHg 83%
    01:00 +26°C° 0,2 mm 1 m/s 728 mmHg 84%
    02:00 +26°C° 0,2 mm 1 m/s 727 mmHg 84%
    03:00 +26°C° 0,2 mm 1 m/s 727 mmHg 84%
    04:00 +26°C° 0,1 mm 1 m/s 727 mmHg 84%
    05:00 +25°C° 0,1 mm 1 m/s 727 mmHg 84%
    06:00 +25°C° 0,1 mm 1 m/s 727 mmHg 85%
    07:00 +27°C° 0 mm 1 m/s 727 mmHg 78%
    08:00 +29°C° 0 mm 1 m/s 728 mmHg 71%
    09:00 +29°C° 0 mm 0 m/s 728 mmHg 65%
    10:00 +32°C° 0,5 mm 1 m/s 728 mmHg 63%
    11:00 +34°C° 0,5 mm 2 m/s 727 mmHg 61%
    12:00 +34°C° 0,5 mm 2 m/s 727 mmHg 59%
    13:00 +34°C° 0,8 mm 2 m/s 727 mmHg 62%
    14:00 +34°C° 0,8 mm 2 m/s 726 mmHg 65%
    15:00 +33°C° 0,8 mm 3 m/s 725 mmHg 68%
    16:00 +31°C° 1,2 mm 2 m/s 725 mmHg 73%
    17:00 +30°C° 1,2 mm 2 m/s 725 mmHg 79%
    18:00 +28°C° 1,2 mm 1 m/s 726 mmHg 84%
    19:00 +28°C° 2,3 mm 1 m/s 726 mmHg 87%
    20:00 +27°C° 2,3 mm 1 m/s 727 mmHg 89%
    21:00 +25°C° 2,3 mm 0 m/s 728 mmHg 92%
    22:00 +24°C° 2,7 mm 0 m/s 728 mmHg 92%
    23:00 +26°C° 2,7 mm 1 m/s 728 mmHg 93%

    Depois de amanhã, 25 Agosto, Sexta-feira

    Tempo Temperatura Precipitação Vento Pressão Humidade
    00:00 +26°C° 2,7 mm 1 m/s 728 mmHg 93%
    01:00 +26°C° 1,3 mm 1 m/s 727 mmHg 93%
    02:00 +26°C° 1,3 mm 1 m/s 727 mmHg 93%
    03:00 +25°C° 1,3 mm 1 m/s 727 mmHg 93%
    04:00 +25°C° 0,8 mm 1 m/s 727 mmHg 93%
    05:00 +25°C° 0,8 mm 1 m/s 727 mmHg 92%
    06:00 +25°C° 0,8 mm 1 m/s 727 mmHg 92%
    07:00 +26°C° 0,7 mm 1 m/s 728 mmHg 91%
    08:00 +26°C° 0,7 mm 1 m/s 728 mmHg 90%
    09:00 +27°C° 0,7 mm 1 m/s 729 mmHg 89%
    10:00 +28°C° 0,6 mm 1 m/s 729 mmHg 85%
    11:00 +29°C° 0,6 mm 1 m/s 728 mmHg 80%
    12:00 +28°C° 0,6 mm 0 m/s 728 mmHg 75%
    13:00 +30°C° 0,5 mm 1 m/s 728 mmHg 76%
    14:00 +30°C° 0,5 mm 1 m/s 727 mmHg 76%
    15:00 +30°C° 0,5 mm 2 m/s 726 mmHg 77%
    16:00 +29°C° 1,4 mm 2 m/s 727 mmHg 80%
    17:00 +28°C° 1,4 mm 1 m/s 727 mmHg 84%
    18:00 +27°C° 1,4 mm 1 m/s 727 mmHg 88%
    19:00 +27°C° 2,2 mm 1 m/s 728 mmHg 89%
    20:00 +26°C° 2,2 mm 1 m/s 728 mmHg 91%
    21:00 +26°C° 2,2 mm 1 m/s 729 mmHg 92%
    22:00 +26°C° 1 mm 1 m/s 729 mmHg 92%
    23:00 +26°C° 1 mm 1 m/s 729 mmHg 91%

    26 Agosto, Sábado

    Tempo Temperatura Precipitação Vento Pressão Humidade
    00:00 +25°C° 1 mm 1 m/s 729 mmHg 91%
    01:00 +25°C° 0,6 mm 1 m/s 729 mmHg 91%
    02:00 +25°C° 0,6 mm 1 m/s 728 mmHg 90%
    03:00 +25°C° 0,6 mm 1 m/s 728 mmHg 90%
    04:00 +25°C° 0,4 mm 1 m/s 728 mmHg 89%
    05:00 +25°C° 0,4 mm 1 m/s 728 mmHg 88%
    06:00 +25°C° 0,4 mm 1 m/s 728 mmHg 88%
    07:00 +27°C° 0,1 mm 1 m/s 729 mmHg 82%
    08:00 +28°C° 0,1 mm 1 m/s 729 mmHg 76%
    09:00 +30°C° 0,1 mm 2 m/s 730 mmHg 69%
    10:00 +30°C° 0,3 mm 2 m/s 729 mmHg 69%
    11:00 +30°C° 0,3 mm 2 m/s 729 mmHg 69%
    12:00 +31°C° 0,3 mm 3 m/s 728 mmHg 69%
    13:00 +31°C° 0,4 mm 3 m/s 728 mmHg 69%
    14:00 +31°C° 0,4 mm 3 m/s 727 mmHg 70%
    15:00 +31°C° 0,4 mm 3 m/s 727 mmHg 71%
    16:00 +30°C° 0,5 mm 3 m/s 727 mmHg 75%
    17:00 +28°C° 0,5 mm 3 m/s 727 mmHg 79%
    18:00 +27°C° 0,5 mm 3 m/s 727 mmHg 84%
    19:00 +27°C° 1,2 mm 2 m/s 728 mmHg 86%
    20:00 +26°C° 1,2 mm 2 m/s 728 mmHg 88%
    21:00 +26°C° 1,2 mm 2 m/s 729 mmHg 89%
    22:00 +26°C° 0,4 mm 2 m/s 729 mmHg 89%
    23:00 +25°C° 0,4 mm 2 m/s 729 mmHg 89%

    27 Agosto, Domingo

    Tempo Temperatura Precipitação Vento Pressão Humidade
    00:00 +25°C° 0,4 mm 2 m/s 728 mmHg 89%
    01:00 +25°C° 0,1 mm 2 m/s 728 mmHg 89%
    02:00 +25°C° 0,1 mm 2 m/s 728 mmHg 88%
    03:00 +25°C° 0,1 mm 1 m/s 728 mmHg 88%
    04:00 +25°C° 0 mm 1 m/s 728 mmHg 87%
    05:00 +25°C° 0 mm 1 m/s 728 mmHg 86%
    06:00 +25°C° 0 mm 1 m/s 728 mmHg 85%
    07:00 +27°C° 0 mm 2 m/s 729 mmHg 78%
    08:00 +28°C° 0 mm 2 m/s 729 mmHg 71%
    09:00 +30°C° 0 mm 2 m/s 729 mmHg 64%
    10:00 +31°C° 0,2 mm 3 m/s 729 mmHg 62%
    11:00 +33°C° 0,2 mm 3 m/s 729 mmHg 60%
    12:00 +34°C° 0,2 mm 3 m/s 728 mmHg 59%
    13:00 +33°C° 0,5 mm 3 m/s 728 mmHg 63%
    14:00 +33°C° 0,5 mm 3 m/s 727 mmHg 66%
    15:00 +31°C° 0,5 mm 3 m/s 726 mmHg 70%
    16:00 +30°C° 0,6 mm 3 m/s 726 mmHg 74%
    17:00 +29°C° 0,6 mm 2 m/s 727 mmHg 78%
    18:00 +28°C° 0,6 mm 2 m/s 727 mmHg 83%
    19:00 +27°C° 0,5 mm 1 m/s 727 mmHg 85%
    20:00 +27°C° 0,5 mm 1 m/s 728 mmHg 87%
    21:00 +26°C° 0,5 mm 1 m/s 728 mmHg 89%
    22:00 +25°C° 0,1 mm 1 m/s 728 mmHg 90%
    23:00 +25°C° 0,1 mm 1 m/s 728 mmHg 90%

    28 Agosto, Segunda-feira

    Tempo Temperatura Precipitação Vento Pressão Humidade
    00:00 +25°C° 0,1 mm 1 m/s 728 mmHg 90%
    01:00 +25°C° 0 mm 1 m/s 728 mmHg 89%
    02:00 +24°C° 0 mm 1 m/s 728 mmHg 88%
    03:00 +24°C° 0 mm 1 m/s 727 mmHg 87%
    04:00 +24°C° 0 mm 1 m/s 728 mmHg 85%
    05:00 +24°C° 0 mm 1 m/s 728 mmHg 84%
    06:00 +24°C° 0 mm 1 m/s 728 mmHg 82%
    07:00 +26°C° 0 mm 1 m/s 728 mmHg 73%
    08:00 +29°C° 0 mm 1 m/s 728 mmHg 65%
    09:00 +31°C° 0 mm 1 m/s 728 mmHg 56%
    10:00 +32°C° 0 mm 2 m/s 728 mmHg 54%
    11:00 +34°C° 0 mm 2 m/s 728 mmHg 53%
    12:00 +35°C° 0 mm 3 m/s 728 mmHg 51%
    13:00 +34°C° 0,5 mm 3 m/s 727 mmHg 58%
    14:00 +33°C° 0,5 mm 3 m/s 726 mmHg 64%
    15:00 +31°C° 0,5 mm 3 m/s 726 mmHg 71%
    16:00 +30°C° 0,4 mm 2 m/s 726 mmHg 75%
    17:00 +29°C° 0,4 mm 2 m/s 727 mmHg 79%
    18:00 +28°C° 0,4 mm 1 m/s 727 mmHg 83%
    19:00 +27°C° 0,2 mm 1 m/s 727 mmHg 85%
    20:00 +27°C° 0,2 mm 1 m/s 728 mmHg 88%
    21:00 +26°C° 0,2 mm 1 m/s 729 mmHg 90%
    22:00 +26°C° 0,2 mm 1 m/s 728 mmHg 91%
    23:00 +25°C° 0,2 mm 1 m/s 728 mmHg 91%
    Mostrar mais